EYESAT A (AO-27)

Last updated on Thu Mar 05 2026 00:03:21 GMT+0000 (Coordinated Universal Time)

1 22825U 93061C 26063.18293131 .00000168 00000+0 81158-4 0 9994 2 22825 98.6993 130.5887 0009191 53.8329 306.3702 14.30911008691988
UTC large
Height (km)
Speed (km/s)
/
Latitude / Longitude
Inclination (degrees)
Orbital Period (minutes)
Azimuth
Elevation
Range (km)
Doppler Factor

Next 0 passes for location: London (51.5072 / 0.1276)

Sorry there are no passes over London.